Weather History for Claresholm, AB

Change the Weather History Date:

Wednesday, January 1, 2014

  Actual Average Record
Temperature  
Mean Temperature 20 °F -  
Max Temperature 36 °F - - ()
Min Temperature 4 °F - - ()
Degree Days  
Heating Degree Days 45    
Moisture  
Dew Point 15 °F    
Average Humidity 73    
Maximum Humidity 100    
Minimum Humidity 38    
Precipitation  
Precipitation 0.24 in - - ()
Sea Level Pressure  
Sea Level Pressure 30.31 in    
Wind  
Wind Speed 3 mph ()    
Max Wind Speed 9 mph    
Max Gust Speed -    
T = Trace of Precipitation, MM = Missing Value Source: Averaged Metar Reports

Daily Weather History Graph

Daily Weather History Graph

Search for Another Location

Airport:

Trip Planner

Search our weather history database for the weather conditions in past years. The results will help you decide how hot, cold, wet, or windy it might be!

Date:

Astronomy

Jan. 01, 2014 Rise Set
Actual Time 8:33 AM MST 4:43 PM MST
Civil Twilight 7:54 AM MST 5:21 PM MST
Nautical Twilight 7:13 AM MST 6:03 PM MST
Astronomical Twilight 6:34 AM MST 6:42 PM MST
Moon 8:19 AM MST (1/1) 5:41 PM MST (1/1)
Length of Visible Light 9h 26m
Length of Day
8h 10m
New Moon, 0% of the Moon is Illuminated
Jan 1
New Moon
Jan 7
First Quarter
Jan 15
Full
Jan 23
Last Quarter
Jan 30
New

Hourly Weather History & Observations

Time (MST) Temp. Windchill Dew Point Humidity Pressure Visibility Wind Dir Wind Speed Gust Speed Precip Events Conditions
12:00 AM 18.0 °F - 18.5 °F 100% 30.30 in - SSW 1.2 mph - N/A   Unknown
1:00 AM 14.0 °F 5.1 °F 12.0 °F 92% 30.32 in - East 5.8 mph - N/A   Unknown
2:00 AM 10.9 °F - 9.0 °F 92% 30.34 in - South 2.3 mph - N/A   Unknown
3:00 AM 10.0 °F 1.8 °F 8.6 °F 94% 30.35 in - South 4.6 mph - N/A   Unknown
4:00 AM 10.6 °F 4.3 °F 8.8 °F 92% 30.35 in - East 3.5 mph - N/A   Unknown
5:00 AM 6 °F - 3 °F 80% 30.38 in - ESE 1.2 mph - -  
5:00 AM 6.4 °F - 2.8 °F 85% 30.38 in - ESE 1.2 mph - N/A   Unknown
6:00 AM 9.0 °F - 7.7 °F 95% 30.38 in - NNE 2.3 mph - N/A   Unknown
7:00 AM 9.3 °F - 7.3 °F 92% 30.41 in - North 2.3 mph - N/A   Unknown
8:00 AM 6.3 °F - 4.6 °F 93% 30.42 in - WNW 2.3 mph - N/A   Unknown
9:00 AM 10.4 °F 4.0 °F 8.2 °F 91% 30.42 in - North 3.5 mph - N/A   Unknown
10:00 AM 16.7 °F - 11.5 °F 80% 30.39 in - SE 1.2 mph - N/A   Unknown
11:00 AM 24 °F - 16 °F 62% 30.37 in - East 1.2 mph - -  
11:00 AM 24.4 °F - 16.3 °F 71% 30.37 in - East 1.2 mph - N/A   Unknown
12:00 PM 28.6 °F - 19.8 °F 70% 30.33 in - SE 2.3 mph - N/A   Unknown
1:00 PM 30.7 °F - 20.5 °F 66% 30.30 in - ESE 2.3 mph - N/A   Unknown
2:00 PM 33.1 °F 28.7 °F 21.7 °F 63% 30.30 in - SE 4.6 mph - N/A   Unknown
3:00 PM 34.3 °F - 22.5 °F 62% 30.29 in - East 2.3 mph - N/A   Unknown
4:00 PM 34.0 °F 31.0 °F 18.7 °F 54% 30.27 in - SW 3.5 mph - N/A   Unknown
5:00 PM 33 °F - 19 °F 44% 30.28 in - SW 1.2 mph - -  
5:00 PM 32.9 °F - 19.4 °F 58% 30.28 in - SW 1.2 mph - N/A   Unknown
6:00 PM 31.1 °F 27.7 °F 19.0 °F 61% 30.26 in - South 3.5 mph - N/A   Unknown
7:00 PM 25.5 °F 17.8 °F 18.9 °F 76% 30.25 in - South 6.9 mph - N/A   Unknown
8:00 PM 32.0 °F 24.2 °F 22.1 °F 67% 30.23 in - West 9.2 mph - N/A   Unknown
9:00 PM 33.4 °F 25.9 °F 18.7 °F 55% 30.20 in - West 9.2 mph - N/A   Unknown
10:00 PM 33.1 °F 28.7 °F 18.1 °F 54% 30.17 in - West 4.6 mph - N/A   Unknown
11:00 PM 36 °F - 20 °F 38% 30.12 in - WSW 3.5 mph - -  
11:00 PM 35.6 °F 32.8 °F 19.6 °F 52% 30.12 in - WSW 3.5 mph - N/A   Unknown